Regional Weather Roundup
Issued by NWS Northern Indiana

Home | Current Version | Previous Version | Text Only | Print | Product List | Glossary Off
Versions: 1 2 3 4 5 6 7 8 9 10 11 12 13 14 15 16 17 18 19 20 21 22 23 24 25 26 27 28 29 30 31 32 33 34 35 36 37 38 39 40 41 42 43 44 45 46 47 48 49 50

000
ASUS43 KIWX 220500
RWRIWX

KIWX WEATHER ROUNDUP
NATIONAL WEATHER SERVICE NORTHERN INDIANA
1200 AM EST SAT NOV 22 2014

NOTE: "FAIR" INDICATES FEW OR NO CLOUDS BELOW 12,000 FEET WITH NO
SIGNIFICANT WEATHER AND/OR OBSTRUCTIONS TO VISIBILITY.

* THESE STATIONS ARE NOT UNDER NWS QUALITY CONTROL. THEY ALSO MAY NOT
  REPORT WEATHER SUCH AS PRECIPITATION OR FOG.

INZ001>027-220600-
NORTHERN INDIANA

CITY           SKY/WX    TMP DP  RH WIND       PRES   REMARKS
SOUTH BEND     CLOUDY    27  15  61 S9        30.26F WCI  18
GOSHEN         MOCLDY    27  13  55 S9        30.27F WCI  18
ANGOLA*        CLEAR     19  10  68 S8        30.28F WCI   9
FORT WAYNE     PTCLDY    20  12  71 SE5       30.31F WCI  13
PERU/GRISSOM   CLOUDY    31  19  61 S10       30.28F WCI  22

$$
INZ028>050-220600-
CENTRAL INDIANA

CITY           SKY/WX    TMP DP  RH WIND       PRES   REMARKS
LAFAYETTE      CLOUDY    32  14  47 S8        30.28F WCI  25
KOKOMO*        CLOUDY    28  16  59 S14       30.29F WCI  17
MUNCIE*        MOCLDY    29  12  49 MISG      30.31F
INDIANAPOLIS   CLOUDY    30  13  49 SE9       30.30F WCI  22

$$
MIZ043>046-050>051-056>058-064>065-071>073-077>080-220600-
SOUTHWEST LOWER MICHIGAN

CITY           SKY/WX    TMP DP  RH WIND       PRES   REMARKS
BATTLE CREEK   PTCLDY    25  12  58 S15       30.25F WCI  13
BENTON HARBOR  CLOUDY    29  12  49 S9        30.24F WCI  20
COLDWATER*     PTCLDY    26  12  55 S9G16     30.27F WCI  17
HILLSDALE*     PTCLDY    22  11  63 S9G17     30.27F WCI  11
HOLLAND        CLOUDY    28  14  55 S13       30.22F WCI  17
GRAND RAPIDS   MOCLDY    24  13  62 S14       30.22F WCI  12
KALAMAZOO      MOCLDY    24  14  65 S15       30.25F WCI  11
STURGIS*       MOCLDY    23  12  63 S9        30.26F WCI  13
THREE RIVERS*  FAIR      23  14  67 S7        30.27F WCI  15

$$
OHZ001>008-015>018-024>025-220600-
NORTHWEST OHIO

CITY           SKY/WX    TMP DP  RH WIND       PRES   REMARKS
DEFIANCE       PTCLDY    20  11  68 S6        30.34F WCI  12
FINDLAY        PTCLDY    19  10  68 S10       30.35F WCI   7
TOLEDO EXPRESS CLEAR     18  10  71 S6        30.35F WCI  10
TOLEDO METCALF PTCLDY    19   9  65 S8        30.37F WCI   9
LIMA           CLEAR     21  11  65 S13       30.33F WCI   9

$$
AND FOR LAKE MICHIGAN COASTAL AND OPEN LAKE BUOY OBSERVATIONS

STATION/POSITION TEMP    WIND        PRES    VSBY  WAVE
                 AIR SEA DIR/SP/G                  HT/PER
                 (F)     (DEG/KT/KT) (MB)    (MI)  (FT/S)
CALUMET HARBOR    33     170/ 10/ 13 1021.7F
MICHIGAN CITY     30     150/ 18/ 23   N/A
SAINT JOSEPH      29     170/  7/ 15 1024.7S
SOUTH LAKE BUOY   36 43  190/ 23/ 29 1023.8F         6/ 6

$$
&&


USA.gov is the U.S. government's official web portal to all federal, state and local government web resources and services.